Home   Weather   Bruck an der Leitha   Past weeks

Flag for Austria Past Weather in Bruck an der Leitha, Lower Austria, Austria — Yesterday and Last 2 Weeks

Now
62 °F

Partly sunny.


Feels Like: 62 °F
Forecast: 49 / 69 °F
Wind: N/A

Location: Wien / Schwechat-Flughafen

Current Time: Sep 26, 2016 at 12:33:45 PM

Latest Report: Sep 26, 2016 at 12:00 PM


Visibility: 10 mi

Pressure: 30.19 "Hg

Humidity: 68%

Dew Point: 51 °F

Location of Bruck an der LeithaLocation

Past Weather in Bruck an der Leitha — Graph

°F

Bruck an der Leitha Temperature Yesterday

Maximum temperature yesterday: 71 °F (at 3:00 PM)
Minimum temperature yesterday: 46 °F (at 7:00 AM)
Average temperature yesterday: 58 °F

High & Low Weather Summary for the Past Weeks

 TemperatureHumidityPressure
High85 °F (Sep 12, 4:00 PM)97% (Sep 25, 7:00 AM)30.36 "Hg (Sep 25, 7:00 AM)
Low42 °F (Sep 23, 7:00 AM)36% (Sep 12, 5:00 PM)29.76 "Hg (Sep 17, 6:00 AM)
Average63 °F69%30.04 "Hg
* Reported Sep 11 11:00 AM — Sep 26 11:00 AM, Bruck an der Leitha, Weather by CustomWeather, © 2016

Note: Actual official high and low records may vary slightly from our data, if they occured in-between our weather recording intervals... More about our weather records

Advertising

Bruck an der Leitha Weather History for the Previous 24 Hours

Scroll right to see more
 ConditionsComfort  
Time TempWeatherWind HumidityBarometerVisibility
11:00 AM
Mon, Sep 26
59 °FOvercast.N/A70%30.20 "Hg7 mi
10:00 AM56 °FOvercast.N/A76%30.21 "Hg7 mi
9:00 AM54 °FOvercast.N/A83%30.20 "Hg4 mi
8:00 AM49 °FOvercast.N/A94%30.20 "Hg2 mi
7:00 AM49 °FOvercast.N/A91%30.18 "Hg6 mi
6:00 AM48 °FPassing clouds.N/A92%30.17 "Hg5 mi
5:00 AM50 °FOvercast.N/A90%30.17 "Hg9 mi
4:00 AM50 °FOvercast.N/A87%30.17 "Hg11 mi
3:00 AM51 °FPassing clouds.N/A91%30.17 "Hg10 mi
2:00 AM51 °FPassing clouds.N/A95%30.17 "Hg7 mi
1:00 AM51 °FPassing clouds.N/A94%30.16 "Hg7 mi
12:00 AM53 °FPassing clouds.N/A87%30.16 "Hg16 mi
11:00 PM
Sun, Sep 25
56 °FPassing clouds.N/A83%30.16 "Hg16 mi
10:00 PM57 °FPassing clouds.N/A76%30.14 "Hg22 mi
9:00 PM59 °FPassing clouds.N/A78%30.14 "Hg17 mi
8:00 PM61 °FPassing clouds.N/A71%30.12 "Hg3 mi
7:00 PM65 °FPassing clouds.N/A56%30.11 "Hg1 mi
6:00 PM69 °FPartly sunny.N/A47%30.10 "Hg12 mi
5:00 PM71 °FScattered clouds.N/A45%30.10 "Hg19 mi
4:00 PM71 °FScattered clouds.3 mph45%30.11 "Hg17 mi
3:00 PM71 °FPassing clouds.N/A42%30.12 "Hg16 mi
2:00 PM70 °FPassing clouds.3 mph45%30.14 "Hg19 mi
1:00 PM69 °FScattered clouds.5 mph47%30.16 "Hg6 mi
12:00 PM65 °FPartly sunny.N/A64%30.19 "Hg9 mi
Weather by CustomWeather, © 2016

See weather overviewHow to use our weather pages